Weather History for Atlantic City, NJ

Change the Weather History Date:

Tuesday, January 22, 2013

  Actual Average Record
Temperature  
Mean Temperature 20 °F 33 °F  
Max Temperature 26 °F 41 °F 66 °F (1967)
Min Temperature 13 °F 24 °F -8 °F (1961)
Degree Days  
Heating Degree Days 45 32  
Month to date heating degree days 598 702  
Since 1 July heating degree days 2242 2471  
Cooling Degree Days 0 0  
Month to date cooling degree days 0 0  
Year to date cooling degree days 0 0  
Moisture  
Dew Point 2 °F    
Average Humidity 62    
Maximum Humidity 88    
Minimum Humidity 36    
Precipitation  
Precipitation 0.00 in 0.10 in 1.03 in (1954)
Month to date precipitation 1.74 2.31  
Year to date precipitation 1.74 2.31  
Snow  
Snow 0.00 in 0.10 in 5.00 in (1954)
Month to date snowfall 1.1 2.8  
Since 1 July snowfall 3.6 6.7  
Snow Depth 1.00 in    
Sea Level Pressure  
Sea Level Pressure 30.10 in    
Wind  
Wind Speed 16 mph (WNW)    
Max Wind Speed 28 mph    
Max Gust Speed 34 mph    
Visibility 10 miles    
Events      
T = Trace of Precipitation, MM = Missing Value Source: NWS Daily Summary

Daily Weather History Graph

Daily Weather History Graph

Search for Another Location

Airport:

Trip Planner

Search our weather history database for the weather conditions in past years. The results will help you decide how hot, cold, wet, or windy it might be!

Date:

Astronomy

Jan. 22, 2013 Rise Set
Actual Time 7:13 AM EST 5:07 PM EST
Civil Twilight 6:44 AM EST 5:36 PM EST
Nautical Twilight 6:11 AM EST 6:08 PM EST
Astronomical Twilight 5:39 AM EST 6:40 PM EST
Moon 1:28 PM EST (1/22) 3:32 AM EST (1/22)
Length of Visible Light 10h 51m
Length of Day
9h 53m
Waxing Gibbous, 82% of the Moon is Illuminated
Jan 22
Waxing Gibbous
Jan 26
Full
Feb 3
Last Quarter
Feb 10
New
Feb 17
First Quarter

Hourly Weather History & Observations

Time (EST) Temp. Windchill Dew Point Humidity Pressure Visibility Wind Dir Wind Speed Gust Speed Precip Events Conditions
12:54 AM 25.0 °F 13.6 °F 17.1 °F 72% 29.89 in 10.0 mi NW 12.7 mph - N/A   Clear
1:54 AM 23.0 °F 12.4 °F 12.0 °F 63% 29.90 in 10.0 mi NW 10.4 mph - N/A   Clear
2:54 AM 21.9 °F 12.5 °F 10.9 °F 63% 29.93 in 10.0 mi WNW 8.1 mph - N/A   Clear
3:54 AM 21.9 °F 6.9 °F 12.0 °F 66% 29.96 in 10.0 mi WNW 19.6 mph 25.3 mph N/A   Clear
4:54 AM 19.9 °F 3.5 °F 3.0 °F 48% 29.99 in 10.0 mi WNW 21.9 mph 33.4 mph N/A   Clear
5:54 AM 19.0 °F 4.5 °F 1.9 °F 47% 30.02 in 10.0 mi WNW 16.1 mph 27.6 mph N/A   Clear
6:54 AM 18.0 °F 3.1 °F -0.0 °F 45% 30.05 in 10.0 mi WNW 16.1 mph 24.2 mph N/A   Clear
7:54 AM 18.0 °F 2.2 °F -0.0 °F 45% 30.07 in 10.0 mi WNW 18.4 mph 26.5 mph N/A   Clear
8:54 AM 19.0 °F 2.0 °F -0.0 °F 43% 30.10 in 10.0 mi WNW 23.0 mph 31.1 mph N/A   Clear
9:54 AM 19.9 °F 2.5 °F -0.0 °F 42% 30.13 in 10.0 mi West 25.3 mph 31.1 mph N/A   Clear
10:54 AM 21.0 °F 5.7 °F -2.0 °F 36% 30.13 in 10.0 mi WNW 19.6 mph 33.4 mph N/A   Clear
11:54 AM 21.9 °F 7.3 °F -0.9 °F 37% 30.12 in 10.0 mi WNW 18.4 mph 28.8 mph N/A   Clear
12:54 PM 21.9 °F 7.3 °F 1.0 °F 40% 30.10 in 10.0 mi WNW 18.4 mph 28.8 mph N/A   Partly Cloudy
1:54 PM 21.9 °F 6.2 °F -0.9 °F 37% 30.09 in 10.0 mi WNW 21.9 mph 31.1 mph N/A   Clear
2:54 PM 21.0 °F 5.7 °F -2.0 °F 36% 30.10 in 10.0 mi West 19.6 mph 27.6 mph N/A   Partly Cloudy
3:54 PM 21.0 °F 5.4 °F -2.0 °F 36% 30.12 in 10.0 mi WNW 20.7 mph 29.9 mph N/A   Clear
4:54 PM 19.0 °F 2.7 °F -2.9 °F 38% 30.14 in 10.0 mi WNW 20.7 mph - N/A   Clear
5:54 PM 18.0 °F 2.6 °F -2.0 °F 41% 30.18 in 10.0 mi WNW 17.3 mph 24.2 mph N/A   Clear
6:54 PM 17.1 °F 3.6 °F -2.0 °F 43% 30.22 in 10.0 mi WNW 12.7 mph - N/A   Clear
7:54 PM 16.0 °F 2.9 °F -2.0 °F 45% 30.23 in 10.0 mi WNW 11.5 mph - N/A   Clear
8:54 PM 15.1 °F 4.2 °F -2.9 °F 45% 30.24 in 10.0 mi WNW 8.1 mph - N/A   Clear
9:54 PM 15.1 °F 2.5 °F -2.9 °F 45% 30.26 in 10.0 mi WNW 10.4 mph - N/A   Clear
10:54 PM 14.0 °F 1.2 °F -2.9 °F 47% 30.27 in 10.0 mi WNW 10.4 mph - N/A   Clear
11:54 PM 14.0 °F 0.5 °F -4.0 °F 45% 30.26 in 10.0 mi WNW 11.5 mph - N/A   Clear